Home > Weather > Riehen > Past weeks

Flag for Switzerland Weather for the Past 2 Weeks in Riehen, Basel-Stadt, Switzerland

Now
47 °F

Overcast.


Feels Like: 42 °F
Forecast: 44 / 61 °F
Wind: 9 mph from West

Location: Bale-Mulhouse

Current Time: May 1, 2016 at 6:16:44 PM

Latest Report: May 1, 2016 at 5:00 PM


Visibility: 7 mi

Pressure: 30.17 "Hg

Humidity: 89%

Dew Point: 44 °F

Location of RiehenLocation

Historic Weather in Riehen — Graph

°F

Riehen Temperature Yesterday

Maximum temperature yesterday: 62 °F (at 3:00 PM)
Minimum temperature yesterday: 47 °F (at 11:00 PM)
Average temperature yesterday: 53 °F

High & Low Weather Summary for the Past Weeks

 TemperatureHumidityPressure
High69 °F (Apr 21, 6:00 PM)100% (Apr 19, 8:00 AM)30.37 "Hg (Apr 19, 8:00 AM)
Low35 °F (Apr 27, 4:00 AM)38% (Apr 29, 6:00 PM)29.67 "Hg (Apr 16, 8:00 PM)
Average48 °F74%30.01 "Hg
* Reported Apr 16 5:00 PM — May 1 5:00 PM, Riehen, Weather by CustomWeather, © 2016

Note: Actual official high and low records may vary slightly from our data, if they occured in-between our weather recording intervals... More about our weather records

Advertising

Riehen Weather History for the Previous 24 Hours

Scroll right to see more
 ConditionsComfort  
Time TempWeatherWind HumidityBarometerVisibility
5:00 PM
Sun, May 1
47 °FOvercast.9 mph89%30.17 "Hg7 mi
4:00 PM45 °FOvercast.5 mph91%30.17 "Hg6 mi
3:00 PM44 °FOvercast.8 mph92%30.17 "Hg6 mi
2:00 PM44 °FDrizzle. Low clouds.10 mph93%30.15 "Hg2 mi
1:00 PM45 °FLow clouds.9 mph93%30.13 "Hg4 mi
12:00 PM44 °FLight rain. Low clouds.9 mph94%30.12 "Hg7 mi
11:00 AM43 °FLight rain. Low clouds.9 mph93%30.11 "Hg6 mi
10:00 AM43 °FLight rain. Low clouds.7 mph94%30.10 "Hg4 mi
9:00 AM42 °FLight rain. Low clouds.7 mph93%30.09 "Hg6 mi
8:00 AM42 °FRain. Low clouds.7 mph96%30.07 "Hg3 mi
7:00 AM42 °FLight rain. Low clouds.8 mph96%30.05 "Hg5 mi
6:00 AM42 °FDrizzle. Low clouds.12 mph94%30.03 "Hg2 mi
5:00 AM43 °FLow clouds.9 mph95%30.03 "Hg19 mi
3:00 AM44 °FLow clouds.12 mph92%30.01 "Hg9 mi
2:00 AM46 °FLight rain. Low clouds.10 mph93%30.01 "Hg6 mi
1:00 AM46 °FLight rain. Low clouds.6 mph95%30.01 "Hg4 mi
12:00 AM46 °FLight rain. Low clouds.5 mph95%30.01 "Hg6 mi
11:00 PM
Sat, Apr 30
47 °FLight rain. Low clouds.3 mph95%30.02 "Hg4 mi
10:00 PM47 °FRain. Low clouds.2 mph95%30.03 "Hg2 mi
9:00 PM47 °FRain. Low clouds.1 mph94%30.01 "Hg2 mi
8:00 PM48 °FRain. Overcast.No wind91%30.01 "Hg3 mi
7:00 PM48 °FLight rain. Overcast.5 mph91%30.01 "Hg4 mi
6:00 PM49 °FSprinkles. Overcast.10 mph84%29.97 "Hg6 mi
Weather by CustomWeather, © 2016

See weather overviewHow to use our weather pages